Location: Gönnheim
(49.4488°N, 8.2383°E)
Time: 01:17:10
(UTC+00:00)

Meteor 2-4 Rocket - Pass Details

Date: 19 May 2025
Orbit: 798 x 906 km, 81.2° (Epoch: 22 June)

Event Time Altitude Azimuth Distance (km) Brightness Sun altitude
Exits shadow 22:30:51 36° 157° (SSE) 1,338 4.2 -19.6°
Maximum altitude 22:33:01 59° 96° (E) 1,005 3.9 -19.7°
Drops below altitude 10° 22:38:43 10° 18° (NNE) 2,562 7.1 -19.9°
Sets 22:41:14 0° 15° (NNE) 3,519 8.0 -19.9°
